sat.trackr.live / text

‹ back to catalog

DTUSAT-2

NORAD 40030 · 2014-033W

PAYLOAD ACTIVE UNKNOWN

§ Identity

Operator
Country
DEN
Launch date
2014-06-19
Launch site
DLS
Launch vehicle
Mass (kg)
RCS (m²)
0.01

External: N2YO · Heavens-Above · Gunter

§ Orbital elements

Epoch: 2026-09-19T23:33:15.268608Z

Period
94.98 min
Inclination
98.0927°
Eccentricity
0.0006024
Mean motion
15.16068449 rev/d
Perigee alt
513.6 km
Apogee alt
521.9 km
Semi-major
6,895.9 km
B*
2.2294e-4
RAAN
266.8360°
Arg perigee
272.2482°
Mean anomaly
87.8059°
Rev number
66,704

§ Raw data

DTUSAT-21 40030U 14033W   26262.98142672  .00004216  00000+0  22294-3 0  99992 40030  98.0927 266.8360 0006024 272.2482  87.8059 15.16068449667048

JSON: /api/v1/satellites/40030 · /tle

For live sub-satellite position, see the globe view (requires WebGL).

§ Visibility from observer

Set your observer location to see the next 7 days of passes ≥ 10°. The values pass through the URL so the page stays shareable.

No JS? Fill the form by hand. The geolocation button needs JavaScript.

§ Radio — SatNOGS DB

ModeDescriptionDownlinkUplink
MSK S-Band downlink 2.402 GHz

1 transmitter · refreshed weekly from db.satnogs.org